Location: *
(2.5500°S, 65.9667°W)
Time: 14:01:43
(UTC+00:00)

H-2A R/B - Pass Details

Date: 02 June 2022
Orbit: 734 x 836 km, 98.2° (Epoch: 30 June)

Event Time Altitude Azimuth Distance (km) Brightness Sun altitude
Rises 09:52:39 0° 23° (NNE) 3,352 6.1 -7.7°
Reaches altitude 10° 09:55:06 10° 29° (NNE) 2,412 5.4 -7.2°
Maximum altitude 10:00:14 48° 102° (ESE) 1,047 3.2 -6.0°
Drops below altitude 10° 10:05:16 10° 176° (S) 2,368 4.4 -4.8°
Sets 10:07:38 0° 181° (S) 3,284 5.0 -4.3°
